CZ-6A DEB

Satellite information

Favourite Embed

Satellite Type and Status

DEBRISIN ORBIT

Key statistics

Satellite CZ-6A DEB at a glance.

Uptime

1032

Days in orbit

Revolutions

≈ 13.9

Per day

Orbit

SSO

Sun Synchronous Orbit

Inclination

98.9

Latest

Satellite identification and parameters

Extended collection of information and parameters for CZ-6A DEB.

Object identification

Identified? True

Debris? True

Object name: CZ-6A DEB

International designator: 2022-151FZ

Object number (NORAD): 54449

Object ID (CCSDS): 54449

Country: PEOPLES REPUBLIC OF CHINA (PRC)

Current information (Y/N): Y

RCS size: SMALL

Orbital parameters

Period: 103.402 minutes

Inclination: 98.9451 deg

SMA: 7297.607 km

Apoapsis: 1017.354 km

Periapsis: 821.59 km

RAAN: 230.2458 deg

Eccentricy: 0.01341288

Argument of periapsis: 126.4205 deg

Mean anomaly: 234.9411 deg

Mean motion: 13.92618241 rev/day

Mean motion (dot): 0.00000498 rev/day2

B* drag term: 0.0003884103 1/REarth

Two-line elements (TLE)

Creation date: Sept. 8, 2025, 3:16 a.m.

Reference frame: TEME

Reference center: EARTH

Epoch: Sept. 7, 2025, 9:45 p.m. UTC

TLE line 0: 0 CZ-6A DEB

TLE line 1: 1 54449U 22151FZ 25250.90666133 .00000498 00000-0 38841-3 0 9993

TLE line 2: 2 54449 98.9451 230.2458 0134129 126.4205 234.9411 13.92618241143131

Live tracking on map

Real-time ground track for satellite CZ-6A DEB.

In-orbit conjunctions

A list of the most updated potential collisions computed for object CZ-6A DEB.

Target Orbit TCA Probability of collision Miss distance Type
FENGYUN 1C DEB SSO 2024-11-15 14:30:21 0.0001658594 604.0 (m) DEBRIS
THORAD AGENA D DEB SSO 2024-11-14 12:35:25 0.0001698614 931.0 (m) DEBRIS

Associated space launch

Chinese satellite reported for atmospheric/ocean/environmental/spatial parameter research purposes, details TBD.

CZ-6A DEB was lifted into orbit during the mission ‘Long March 6A | Yunhai 3’, on board a Long March 6A space rocket.

The launch took place on Nov. 11, 2022, 10:52 p.m. from Launch Complex 9A.

For more information about the launch, click the button.

Launch to space Long March 6A | Yunhai 3
Long March 6A | Yunhai 3

Agency: N/A

Status: Launch Successful

Launch date: Nov. 11, 2022, 10:52 p.m. UTC

Rocket: Long March 6A

Launch pad: Launch Complex 9A

Location: Taiyuan Satellite Launch Center, People's Republic of China

...

Latest news about this satellite

There are no fresh news available about this satellite. Check back as we update our databases every day.


Newsletter sign-up

Weekly statistics, charts and insights to help you stay on top of the space industry.